ECMWFNIL_prec_cthk_132.txt.gz
RH
41 39 36 34 32 32 33 35 35 35 38 42 42 40 42 43 42 40 42 41 37 36 37 38 40 40 40 39 38 39 39 40 44 47 45 43 43 44 44 44 44 43
44 43 41 41 38 34 33 35 36 35 35 38 38 39 41 42 41 38 38 40 38 38 38 37 39 40 40 40 40 40 42 41 43 48 48 45 45 46 45 45 45 43
45 46 45 46 45 41 38 36 37 37 35 35 36 38 39 40 41 39 37 37 40 42 42 39 40 42 41 41 41 41 44 43 43 47 49 47 46 47 46 45 44 44
42 45 48 50 50 49 47 44 41 38 36 37 37 38 38 38 41 41 37 35 37 39 41 41 42 45 44 43 42 43 44 44 44 46 47 47 46 45 45 45 45 45
40 42 46 50 51 52 52 50 47 44 41 40 39 39 38 36 37 39 38 36 34 35 38 40 41 43 44 42 41 43 45 46 47 47 46 45 46 48 48 49 49 48
43 40 41 45 48 51 51 51 51 49 48 46 43 42 40 37 36 37 38 38 37 38 39 40 42 44 44 43 41 41 43 46 48 49 48 46 47 50 49 50 51 50
47 44 42 41 43 46 48 50 50 50 50 50 48 46 44 43 40 38 38 37 39 40 41 42 44 44 44 45 43 41 40 42 43 45 44 44 45 46 45 47 49 46
47 47 46 44 42 42 43 45 47 49 50 50 50 49 47 46 45 43 41 40 40 42 42 44 45 43 43 44 45 45 44 43 44 44 43 42 42 42 42 45 46 44
46 46 47 46 44 42 40 40 41 44 47 49 50 50 48 48 48 46 45 44 43 43 42 43 44 42 43 45 46 46 47 46 47 48 48 47 46 44 45 47 48 47
47 45 45 45 46 44 41 38 37 39 42 45 48 48 48 49 49 48 48 46 45 44 42 41 43 43 44 47 47 47 48 48 47 48 49 50 49 48 49 50 50 50
52 50 47 46 45 46 45 42 40 37 36 38 43 45 47 49 49 49 49 46 45 45 44 42 42 43 44 46 49 49 49 49 49 49 49 50 49 47 48 48 48 49
55 53 51 50 48 47 48 48 46 43 38 36 38 40 43 46 48 49 49 47 45 45 46 45 44 45 45 46 48 50 50 50 49 49 50 50 50 49 50 50 49 49
57 57 54 53 52 51 51 50 49 49 47 42 40 40 41 42 44 47 49 48 47 46 46 47 48 49 50 50 51 51 52 52 52 52 52 52 51 51 52 52 52 52
62 64 61 57 54 52 52 51 50 51 51 48 46 45 43 41 42 45 48 48 48 47 47 47 49 52 54 54 55 55 55 55 55 55 54 54 53 54 54 54 54 53
65 68 65 62 58 56 54 53 52 56 56 51 47 46 44 44 43 44 45 46 46 47 47 47 48 51 54 55 56 57 57 57 56 55 55 54 54 54 55 55 55 53
66 68 68 68 67 65 65 62 60 64 64 55 49 48 45 44 43 43 44 46 46 45 47 48 49 50 52 53 54 56 57 56 56 55 55 55 55 55 54 53 53 53
67 70 72 74 73 72 72 72 71 72 69 60 55 52 48 46 44 42 44 47 48 49 48 47 49 50 50 49 50 52 54 56 57 56 56 56 56 56 56 55 54 54
69 72 74 75 76 77 77 76 75 75 72 66 61 58 56 55 49 44 43 43 45 48 49 48 49 48 48 49 49 50 52 54 55 56 55 56 56 57 56 55 55 56
70 71 73 74 75 77 79 79 78 77 75 71 68 66 65 62 54 47 46 43 43 44 46 47 48 48 50 50 49 50 52 52 53 53 53 54 55 57 58 57 56 55
73 73 73 75 76 78 80 81 81 80 78 75 75 74 72 66 58 53 51 47 46 45 45 48 50 51 54 54 51 51 51 51 53 52 53 56 54 54 56 58 58 56
76 76 76 77 78 79 82 83 84 84 83 83 83 82 79 74 67 64 60 52 47 47 49 53 57 57 56 53 51 51 50 50 51 49 51 56 58 57 54 52 55 56
80 79 80 82 83 84 86 88 89 90 90 89 88 85 82 79 75 76 75 64 53 50 53 57 62 66 65 58 49 47 48 48 48 46 45 48 55 63 60 52 52 53
87 86 87 89 89 88 90 91 92 95 95 92 89 88 86 84 80 82 84 76 64 57 57 59 63 67 71 69 56 45 44 46 47 49 47 43 45 55 62 60 53 47
89 88 89 93 94 92 92 93 94 95 95 93 91 90 89 88 85 86 88 83 74 64 59 61 64 64 67 70 60 46 42 43 44 49 53 49 44 49 62 70 63 53
86 84 84 88 92 91 91 93 96 96 95 95 95 95 93 91 89 89 91 89 82 75 66 64 69 70 69 67 59 50 47 45 43 49 57 57 56 59 67 74 71 62
80 80 79 81 83 84 85 88 95 100 98 95 95 95 95 95 92 91 93 92 88 83 78 75 75 76 74 69 60 54 54 51 47 50 55 59 67 75 77 77 76 70

ECMWFNIL_prec_cthk_135.txt.gz
RH
37 35 32 32 32 32 32 34 36 39 40 41 41 43 44 45 44 42 42 44 41 39 38 36 35 35 36 36 35 34 35 36 39 42 40 38 38 39 39 40 42 42
41 40 37 35 33 30 30 32 35 38 39 40 40 41 43 44 44 42 42 43 41 40 38 37 36 35 36 39 38 36 36 36 37 41 44 42 41 41 41 42 44 43
42 44 41 39 37 33 32 32 33 36 37 38 38 40 42 42 42 43 42 41 41 41 40 40 40 37 37 38 38 38 39 38 38 42 46 46 43 43 42 42 44 43
41 44 43 43 43 40 38 35 34 34 35 36 37 37 38 39 39 41 41 38 38 40 42 43 43 41 41 40 38 39 41 41 41 42 43 42 41 41 41 41 43 43
42 43 44 45 45 45 44 41 38 35 35 36 35 35 36 37 37 40 41 38 35 36 39 42 43 43 44 44 41 41 44 45 44 43 41 40 41 42 42 41 42 43
43 42 42 43 45 46 46 46 44 42 40 38 36 36 38 38 38 39 38 38 37 36 37 39 40 41 43 45 44 43 45 46 46 46 44 42 42 44 44 44 45 46
44 44 42 41 42 43 44 48 48 47 46 44 42 41 41 41 42 40 36 36 38 38 37 37 38 39 41 45 46 44 42 42 44 45 44 43 45 45 44 45 46 46
45 50 47 41 39 40 41 43 45 46 46 46 46 46 45 44 44 42 39 38 37 36 36 37 37 39 40 44 46 45 43 44 43 44 43 42 43 42 40 42 43 43
44 50 52 46 39 39 40 40 40 43 44 44 44 46 47 46 45 44 43 42 40 37 37 38 39 39 40 42 43 44 44 45 44 45 46 46 46 45 43 42 43 43
48 49 52 49 43 41 40 38 39 41 42 43 42 43 45 46 46 45 45 44 43 41 40 41 41 40 41 42 42 42 42 44 45 46 47 48 49 50 49 47 46 46
52 53 52 47 45 46 43 40 40 40 42 42 42 42 42 43 44 44 45 46 45 43 42 42 42 42 42 42 42 42 44 46 48 48 48 48 47 47 47 46 47 47
54 56 56 52 50 47 45 44 43 41 42 42 42 43 42 43 44 44 44 45 44 44 43 42 42 42 42 42 43 43 44 46 49 49 49 49 47 46 47 46 47 48
55 56 58 59 57 52 47 47 46 44 44 43 44 44 44 45 45 45 46 46 45 49 49 46 43 41 41 43 43 44 44 46 48 48 48 48 46 46 48 48 49 51
58 57 57 59 61 58 52 49 50 48 46 45 46 46 46 46 45 46 48 49 52 58 57 53 48 43 42 43 43 44 46 46 48 49 49 49 48 48 51 50 49 51
62 60 59 60 61 59 54 52 51 50 48 47 46 48 49 49 48 47 47 48 52 54 53 52 52 49 45 44 44 45 46 47 49 50 51 52 51 51 55 54 52 53
68 67 67 66 63 59 58 56 53 51 50 47 46 49 51 54 57 57 53 50 48 47 47 49 51 52 50 46 44 45 48 48 50 50 51 55 55 53 54 55 53 53
72 73 73 72 66 60 59 60 57 53 51 49 48 49 50 53 60 65 63 57 51 47 47 47 49 53 53 49 45 45 46 47 51 52 52 54 56 55 55 55 54 57
73 73 73 76 75 69 64 63 63 59 57 57 57 57 55 55 60 65 65 62 57 52 50 51 53 54 52 55 57 55 52 49 49 51 51 51 53 55 57 56 55 60
74 74 74 77 82 80 73 68 66 66 66 66 65 65 65 63 64 65 63 61 59 57 58 61 61 55 50 54 61 66 66 61 54 52 50 50 52 55 56 56 57 59
73 76 77 78 81 82 80 76 71 69 69 70 70 70 69 67 66 66 65 62 60 59 63 70 70 63 55 52 54 62 67 67 64 63 60 56 57 56 54 53 55 56
77 79 81 80 78 78 81 82 78 73 70 71 72 72 71 69 68 67 68 68 65 62 64 70 73 69 62 56 52 54 60 64 66 68 68 65 60 58 56 53 50 49
84 86 86 83 80 79 82 84 82 75 70 70 72 73 72 72 72 72 73 73 72 70 69 70 71 68 65 63 58 52 52 58 60 61 66 68 61 58 60 57 47 43
87 89 87 83 80 80 83 84 81 76 71 70 72 72 72 74 75 76 77 79 79 78 76 77 76 72 70 70 67 57 50 53 58 61 64 66 61 56 57 56 47 41
85 87 86 82 79 77 78 80 80 80 78 77 76 74 72 75 78 80 81 83 85 85 84 84 83 79 74 73 70 65 57 53 57 62 61 62 61 55 50 49 46 41
82 84 83 78 75 73 72 73 75 77 79 81 81 80 78 79 79 82 86 89 91 92 90 88 87 83 80 78 76 75 70 63 59 60 60 62 66 63 55 47 42 39
77 78 78 75 73 73 73 73 72 73 77 80 80 82 88 92 91 90 93 95 95 96 93 91 90 89 87 85 82 81 80 76 69 63 63 65 69 71 67 57 47 43

ECMWFNIL_prec_cthk_138.txt.gz
RH
28 25 25 29 32 33 33 30 31 34 36 35 35 35 38 41 41 41 42 41 37 34 34 34 33 32 32 32 32 33 33 32 34 37 37 35 34 36 38 39 40 41
34 29 24 24 27 30 32 31 31 33 35 36 36 36 38 40 41 41 41 42 41 36 32 30 30 31 31 31 31 31 31 30 31 32 35 38 37 37 37 39 41 43
38 38 30 27 27 27 28 30 30 32 34 35 36 37 38 39 39 40 38 38 40 39 36 31 29 30 30 30 31 31 32 33 32 33 36 40 40 40 40 42 44 45
36 41 38 34 32 29 27 28 29 31 32 33 34 35 36 38 39 39 37 36 37 38 38 36 34 32 31 31 32 33 34 34 34 34 35 37 39 39 40 41 42 43
35 40 42 40 38 36 33 30 29 31 31 31 32 33 34 35 37 38 39 37 35 34 36 38 38 37 34 32 31 33 34 33 34 35 35 37 37 37 38 39 40 41
39 39 42 42 41 41 40 37 34 33 33 31 32 32 32 33 34 35 36 39 38 35 33 36 38 38 37 35 33 33 34 35 38 40 40 41 39 37 38 40 42 44
43 43 42 42 43 43 43 42 40 39 38 36 34 34 33 33 33 33 33 36 38 37 34 34 36 36 37 37 36 35 35 35 38 40 41 42 40 38 38 40 42 45
49 49 45 42 43 43 43 43 43 43 43 43 41 39 38 36 36 36 35 35 35 36 36 35 34 35 37 37 37 37 37 36 37 39 39 38 38 37 38 39 39 39
57 57 54 49 45 43 43 42 42 43 43 43 44 44 42 41 41 41 41 40 38 36 36 36 34 34 36 37 37 37 38 39 40 41 41 40 39 39 40 41 41 39
61 63 63 59 52 46 47 46 42 42 43 43 42 43 43 43 43 43 43 44 44 41 38 37 36 35 35 37 38 37 38 39 39 39 40 41 42 44 46 48 48 47
63 68 68 65 59 54 54 53 48 43 43 44 44 43 43 43 43 44 44 44 44 44 42 40 38 38 37 38 40 40 40 41 40 38 38 40 44 46 49 50 49 50
70 77 76 70 66 64 61 61 60 52 45 43 44 45 46 47 46 44 46 47 46 45 44 44 42 41 40 40 41 41 42 43 44 43 42 45 47 49 50 51 50 50
73 77 75 70 71 73 70 69 73 71 60 49 45 44 45 47 46 45 46 47 48 49 49 47 46 45 45 44 43 43 43 43 45 47 48 50 51 51 52 53 53 53
71 72 69 65 70 74 73 73 77 78 74 66 55 48 47 47 45 48 50 48 47 50 52 53 53 52 52 51 49 48 46 45 45 47 49 51 52 52 54 56 56 57
66 67 62 59 62 65 68 74 75 72 75 78 71 61 58 55 50 51 56 54 48 47 50 56 59 57 57 58 56 54 54 55 55 52 49 50 52 54 56 56 57 58
64 65 63 60 61 61 65 71 71 69 72 79 81 74 67 60 53 50 53 52 49 47 49 53 55 56 61 65 62 59 60 63 64 61 56 53 56 59 58 54 55 60
65 65 65 64 64 64 65 65 67 70 70 69 71 73 72 66 56 49 48 50 50 51 52 52 54 59 66 70 66 61 58 59 64 66 61 55 57 62 60 54 52 57
70 67 66 66 66 67 66 64 65 69 71 66 62 64 70 71 62 53 50 51 53 56 58 57 57 60 64 66 69 66 59 56 60 63 58 54 56 60 61 58 55 56
78 76 73 70 68 68 68 67 66 68 70 70 66 64 65 63 60 59 56 52 52 57 60 61 61 62 61 59 63 67 64 60 60 58 57 59 59 57 56 57 59 61
83 82 80 76 71 69 69 69 69 70 71 71 70 69 69 67 66 68 67 62 60 61 63 65 66 67 65 61 59 61 62 63 62 57 55 59 61 60 58 55 55 60
83 82 83 82 79 74 70 69 71 72 72 74 74 74 76 75 73 74 73 71 72 71 71 72 70 68 67 64 60 60 62 66 66 59 52 52 57 63 65 62 60 62
83 83 84 84 83 80 76 73 72 72 73 75 76 76 77 75 73 73 74 74 76 76 75 74 70 68 68 66 64 64 66 69 70 66 60 56 55 56 57 59 64 68
82 82 83 83 82 83 82 78 74 74 74 75 77 78 78 76 75 74 74 74 76 78 77 75 73 73 73 72 71 71 70 72 73 72 69 65 62 55 50 49 55 63
80 80 80 80 79 79 79 76 73 72 74 76 78 80 78 76 76 77 76 77 79 80 79 76 75 76 77 78 79 78 76 75 75 74 73 72 70 65 58 52 50 55
75 76 76 76 74 72 70 71 70 69 69 70 73 76 76 75 76 76 76 77 80 82 82 79 78 78 78 80 82 82 82 81 79 78 78 78 77 74 71 67 61 57
72 73 72 71 68 65 64 64 64 64 65 65 66 68 70 71 73 76 81 84 85 86 87 86 86 83 82 83 84 84 84 85 84 83 83 83 83 81 79 77 77 71

ECMWFNIL_prec_cthk_141.txt.gz
RH
29 29 30 32 33 34 35 34 35 36 37 36 36 37 37 35 36 35 34 33 32 31 32 33 33 33 33 33 34 35 37 37 37 36 35 33 32 32 32 33 35 37
29 27 28 30 32 33 33 31 31 32 35 34 34 35 35 37 40 41 40 39 37 34 33 33 33 33 33 33 32 32 34 34 33 33 32 31 31 32 32 33 35 37
31 28 26 27 28 29 31 32 30 30 33 36 36 36 37 39 41 43 44 44 42 39 36 34 33 32 32 31 31 32 32 32 32 32 32 32 32 33 35 36 37 40
34 33 30 28 26 26 30 33 32 31 33 37 38 39 40 40 41 41 42 42 42 42 40 37 33 31 31 31 31 31 31 32 33 33 34 35 34 34 36 38 38 39
36 37 38 35 31 29 30 30 30 32 34 36 37 38 40 41 41 40 39 39 38 39 40 39 36 34 32 32 32 32 32 34 35 35 35 36 36 37 37 38 38 39
38 39 42 43 40 37 36 33 31 32 34 35 35 36 37 37 38 39 39 38 37 37 38 37 37 37 36 35 34 34 34 35 36 36 37 39 40 41 41 39 39 41
42 42 43 46 47 46 44 42 39 37 37 36 35 35 36 36 36 37 38 38 37 37 37 37 36 36 36 36 35 34 34 35 37 37 40 43 44 44 43 41 40 41
49 48 46 45 47 48 47 46 45 44 43 41 40 39 38 37 36 36 36 37 36 37 37 37 35 34 35 36 37 36 35 35 36 38 42 44 44 42 41 40 40 40
56 54 52 50 50 49 48 48 48 48 47 46 47 48 47 45 42 40 39 39 39 39 39 38 37 36 36 36 37 38 38 38 39 39 42 44 45 44 44 43 42 41
63 62 62 63 62 59 59 59 60 60 59 53 50 49 50 49 47 46 44 43 43 44 43 41 40 39 38 36 36 37 38 39 40 40 42 45 46 46 46 45 44 45
67 65 65 67 67 67 68 67 65 66 68 66 61 57 54 51 51 51 49 45 44 45 45 44 43 42 40 38 37 37 37 38 39 39 40 42 44 44 45 46 47 48
66 62 62 65 67 68 70 70 68 69 71 70 68 68 67 66 64 62 60 55 51 49 46 46 46 43 42 41 39 39 39 39 40 40 41 42 43 42 43 46 49 50
68 63 61 63 65 67 70 72 72 72 72 69 66 67 69 70 69 68 69 70 67 62 55 49 49 48 45 43 42 41 41 41 41 41 42 42 44 47 52 57 59 58
70 66 61 63 68 72 73 73 70 70 72 71 70 69 68 67 67 65 66 69 71 71 66 56 51 51 50 48 47 47 46 46 46 45 45 43 44 50 59 64 65 64
68 63 60 64 74 78 75 72 68 69 73 72 72 75 75 72 70 67 65 67 70 72 73 66 56 50 51 52 52 53 53 53 53 52 51 49 48 51 58 62 63 64
68 65 64 67 74 78 75 70 65 63 67 68 69 74 76 73 72 69 64 65 68 69 74 76 65 52 49 52 54 57 59 59 59 58 57 56 57 59 62 63 61 61
72 69 68 68 69 71 71 69 64 60 60 62 63 68 71 69 69 69 66 64 66 67 71 77 71 57 49 49 51 55 58 61 63 63 61 61 63 65 66 65 62 60
81 76 72 69 67 66 65 64 63 61 61 62 61 64 68 68 68 72 72 70 69 68 66 68 66 58 51 50 51 53 54 58 64 66 65 61 60 61 64 68 67 62
84 82 79 76 73 70 69 68 67 66 65 65 65 66 67 67 68 72 74 71 69 69 67 63 58 57 57 55 53 53 54 56 61 67 68 66 62 59 61 65 66 62
80 80 80 84 83 79 77 75 72 70 68 67 68 67 66 65 66 70 71 70 69 71 71 63 56 56 59 56 54 56 58 59 60 62 64 65 65 65 64 64 63 61
82 81 81 86 89 88 85 81 77 74 71 68 67 66 65 65 66 69 71 71 71 70 67 63 59 59 60 58 57 60 63 66 66 65 64 64 65 67 66 64 62 61
84 86 85 86 89 89 87 85 83 81 78 75 72 68 67 66 66 69 70 72 73 70 66 66 69 69 67 65 66 68 70 70 69 68 67 67 65 64 64 64 65 64
79 82 83 83 84 86 88 88 88 85 82 81 78 74 71 68 68 69 71 74 75 73 71 72 74 74 73 72 72 73 75 75 74 71 70 69 69 69 68 68 69 69
76 76 79 80 80 83 85 86 84 81 78 77 76 75 74 72 71 70 70 72 74 74 75 76 77 76 77 76 74 74 76 79 79 78 75 73 73 74 74 74 74 75
78 77 78 79 80 79 79 79 78 74 71 69 68 69 70 72 75 75 73 72 74 77 78 78 78 79 79 78 75 74 76 79 81 83 83 79 76 77 79 79 79 80
81 78 74 73 74 74 74 74 74 72 69 67 67 67 68 70 74 77 76 73 75 78 79 78 79 80 82 84 85 82 82 82 82 84 85 82 79 80 80 81 81 82

ECMWFNIL_prec_cthk_144.txt.gz
RH
31 32 34 37 39 40 41 40 40 40 39 39 39 39 38 38 38 36 36 36 35 34 34 34 35 36 36 38 39 42 44 44 44 41 39 37 35 34 34 34 34 34
29 30 32 34 35 37 39 38 38 38 38 39 40 39 39 38 37 35 35 36 35 34 34 33 34 35 36 36 36 38 39 40 40 40 39 36 34 34 34 34 35 36
32 31 31 32 32 34 37 38 38 38 38 39 41 41 40 40 39 38 38 39 38 37 35 35 36 36 36 36 36 36 36 36 36 37 38 36 34 34 33 34 37 37
35 34 32 31 31 33 36 38 37 37 37 39 40 40 40 42 42 43 44 44 44 42 39 38 38 37 36 35 36 35 35 35 34 34 35 35 35 35 34 35 37 39
34 35 34 33 32 32 33 34 33 33 35 37 37 37 39 42 44 45 46 46 46 46 44 43 42 40 38 36 34 34 33 34 34 34 34 35 35 36 36 37 38 39
33 34 34 34 32 31 30 29 29 30 32 34 35 36 39 42 43 45 45 45 44 44 43 43 43 43 40 38 36 36 35 35 34 35 36 36 37 37 38 40 41 40
35 35 35 35 33 32 31 29 27 27 28 30 34 36 38 39 41 42 43 43 43 42 42 42 42 41 40 39 39 39 39 37 36 36 37 37 38 38 40 43 44 43
39 39 39 39 38 38 38 35 34 34 32 31 33 35 36 36 37 38 39 40 41 41 41 42 42 42 41 40 40 39 39 40 39 38 37 38 39 39 40 42 43 43
45 43 43 45 45 44 44 43 43 42 40 38 37 36 36 35 36 36 36 37 37 38 38 39 41 43 43 42 40 39 40 41 41 39 38 39 41 42 42 42 43 44
54 50 49 50 49 47 46 46 46 46 46 46 43 42 42 41 40 40 39 38 37 37 37 37 38 39 41 42 41 41 41 42 41 40 40 40 41 43 44 45 46 45
64 60 58 55 54 54 53 53 53 51 52 52 51 49 49 48 48 47 45 44 42 42 41 41 41 42 41 42 43 43 42 42 41 41 40 41 42 42 43 44 43 43
72 68 65 63 62 62 62 62 62 62 62 62 61 60 59 56 54 52 51 49 47 46 46 46 45 45 45 45 45 45 45 44 42 42 41 41 40 41 42 43 43 45
77 73 70 70 68 66 65 65 67 68 68 67 66 65 66 65 64 63 62 60 58 57 57 55 53 52 53 52 50 49 48 47 44 43 43 43 42 42 43 44 46 51
77 76 74 74 72 68 65 66 67 69 70 70 70 70 70 70 68 67 67 68 68 67 67 68 68 67 67 66 63 60 57 55 53 49 45 44 45 45 46 46 47 51
77 78 79 79 75 69 66 64 66 68 69 72 75 74 74 72 69 69 68 67 67 66 66 69 72 73 72 73 74 71 66 65 66 63 55 50 47 47 48 49 49 50
77 77 82 82 76 72 68 65 66 69 70 74 78 77 76 75 73 73 71 69 66 65 63 63 66 70 72 74 77 75 71 68 69 68 64 58 55 53 52 54 54 54
76 76 81 82 76 74 71 67 69 74 75 76 77 75 73 73 73 74 75 75 73 70 66 62 62 66 71 74 75 75 72 67 66 68 65 61 61 61 60 59 59 61
79 78 80 81 78 78 77 71 70 76 79 78 75 72 69 68 68 70 73 75 75 72 69 66 64 65 70 75 76 75 71 64 61 61 59 56 57 61 63 63 62 62
84 83 83 84 82 80 79 74 70 72 77 79 78 75 72 68 66 66 68 71 73 73 71 70 68 67 70 73 73 72 69 62 57 55 53 51 52 55 61 66 67 66
83 82 80 84 85 82 80 77 74 74 75 77 77 76 74 71 68 67 67 68 71 72 72 72 72 72 71 71 71 70 68 62 58 57 55 53 52 54 59 65 69 68
76 75 75 78 82 82 82 81 81 80 78 78 77 77 76 75 73 71 70 68 69 72 72 73 74 75 74 72 71 72 70 64 59 58 57 55 55 57 61 66 70 70
72 74 75 77 79 80 83 85 88 89 87 84 83 82 81 79 76 74 73 70 71 73 73 72 72 74 76 75 74 73 71 68 64 62 60 59 59 63 66 69 72 72
72 75 77 81 83 85 87 89 92 94 93 91 90 88 86 84 81 79 77 74 72 72 72 71 70 72 74 76 77 76 72 70 72 72 70 69 68 71 75 74 73 72
71 74 78 82 85 87 90 92 93 92 90 90 89 87 85 84 82 80 79 77 74 73 71 72 72 72 73 74 77 76 73 72 75 77 79 79 78 80 82 79 78 77
70 73 77 79 80 81 84 86 87 86 85 84 82 80 79 78 78 76 75 75 76 77 77 77 76 75 74 74 74 75 76 76 77 79 80 80 82 85 86 83 81 81
73 75 77 78 77 77 77 78 80 82 83 81 79 78 77 76 74 73 71 71 74 76 78 78 79 79 76 73 72 74 77 79 81 84 86 86 87 88 87 87 87 85